When you browse on this site, cookies collect data to enhance your experience and personalize the content and advertising you see.
Visit our Privacy Policy to learn more. By continuing to use the site, you agree to this use of cookies and data.
  • In Latvia
  • List of Countries
  • For 7 days
  • Water Temperature
  • Weather Map
  • Weather Widgets
  • user-avatar
    Login

    Hourly Weather Bialogorne

    Today, 20 October, Sunday

    Time Temperature Precipitation Wind Pressure Humidity
    00:00 +13°C° 0 mm 2 mps 742 mmHg 90%
    01:00 +13°C° 0 mm 2 mps 742 mmHg 89%
    02:00 +13°C° 0 mm 2 mps 742 mmHg 88%
    03:00 +13°C° 0 mm 2 mps 742 mmHg 88%
    04:00 +13°C° 0 mm 2 mps 742 mmHg 88%
    05:00 +13°C° 0 mm 2 mps 743 mmHg 87%
    06:00 +13°C° 0 mm 2 mps 743 mmHg 87%
    07:00 +13°C° 0 mm 2 mps 743 mmHg 83%
    08:00 +14°C° 0 mm 3 mps 743 mmHg 76%
    09:00 +16°C° 0 mm 3 mps 743 mmHg 69%
    10:00 +18°C° 0 mm 3 mps 743 mmHg 61%
    11:00 +19°C° 0 mm 3 mps 743 mmHg 57%
    12:00 +20°C° 0 mm 2 mps 743 mmHg 53%
    13:00 +23°C° 0 mm 2 mps 743 mmHg 48%
    14:00 +21°C° 0 mm 2 mps 743 mmHg 51%
    15:00 +20°C° 0 mm 2 mps 743 mmHg 55%
    16:00 +19°C° 0 mm 2 mps 743 mmHg 59%
    17:00 +18°C° 0 mm 2 mps 743 mmHg 62%
    18:00 +17°C° 0 mm 2 mps 743 mmHg 65%
    19:00 +16°C° 0 mm 2 mps 744 mmHg 69%
    20:00 +16°C° 0 mm 2 mps 744 mmHg 70%
    21:00 +16°C° 0 mm 2 mps 744 mmHg 71%
    22:00 +15°C° 0 mm 2 mps 744 mmHg 72%
    23:00 +15°C° 0 mm 2 mps 744 mmHg 73%

    Tomorrow, 21 October, Monday

    Time Temperature Precipitation Wind Pressure Humidity
    00:00 +15°C° 0 mm 2 mps 744 mmHg 73%
    01:00 +15°C° 0 mm 2 mps 744 mmHg 73%
    02:00 +15°C° 0 mm 2 mps 744 mmHg 75%
    03:00 +14°C° 0 mm 2 mps 744 mmHg 76%
    04:00 +14°C° 0 mm 2 mps 744 mmHg 77%
    05:00 +14°C° 0 mm 2 mps 744 mmHg 77%
    06:00 +14°C° 0 mm 2 mps 744 mmHg 78%
    07:00 +14°C° 0 mm 1 mps 745 mmHg 78%
    08:00 +16°C° 0 mm 1 mps 745 mmHg 71%
    09:00 +19°C° 0 mm 1 mps 745 mmHg 65%
    10:00 +20°C° 0 mm 1 mps 745 mmHg 58%
    11:00 +21°C° 0 mm 1 mps 746 mmHg 55%
    12:00 +22°C° 0 mm 1 mps 746 mmHg 53%
    13:00 +23°C° 0 mm 1 mps 747 mmHg 50%
    14:00 +23°C° 0 mm 1 mps 747 mmHg 54%
    15:00 +22°C° 0 mm 1 mps 747 mmHg 57%
    16:00 +21°C° 0 mm 1 mps 747 mmHg 61%
    17:00 +20°C° 0 mm 1 mps 747 mmHg 65%
    18:00 +18°C° 0 mm 2 mps 747 mmHg 68%
    19:00 +17°C° 0 mm 2 mps 747 mmHg 72%
    20:00 +17°C° 0 mm 2 mps 748 mmHg 74%
    21:00 +16°C° 0 mm 2 mps 748 mmHg 77%
    22:00 +16°C° 0 mm 1 mps 748 mmHg 79%
    23:00 +15°C° 0 mm 1 mps 748 mmHg 79%

    Day after tomorrow, 22 October, Tuesday

    Time Temperature Precipitation Wind Pressure Humidity
    00:00 +15°C° 0 mm 2 mps 748 mmHg 80%
    01:00 +15°C° 0 mm 2 mps 748 mmHg 80%
    02:00 +14°C° 0 mm 1 mps 748 mmHg 81%
    03:00 +14°C° 0 mm 1 mps 748 mmHg 82%
    04:00 +14°C° 0 mm 1 mps 748 mmHg 83%
    05:00 +14°C° 0 mm 1 mps 749 mmHg 83%
    06:00 +14°C° 0 mm 1 mps 749 mmHg 82%
    07:00 +14°C° 0 mm 1 mps 749 mmHg 82%
    08:00 +15°C° 0 mm 1 mps 749 mmHg 76%
    09:00 +18°C° 0 mm 1 mps 749 mmHg 69%
    10:00 +18°C° 0 mm 2 mps 749 mmHg 62%
    11:00 +19°C° 0 mm 2 mps 749 mmHg 59%
    12:00 +21°C° 0 mm 1 mps 749 mmHg 56%
    13:00 +22°C° 0 mm 1 mps 749 mmHg 52%
    14:00 +22°C° 0 mm 1 mps 748 mmHg 56%
    15:00 +21°C° 0 mm 1 mps 748 mmHg 59%
    16:00 +20°C° 0 mm 1 mps 748 mmHg 63%
    17:00 +19°C° 0 mm 1 mps 748 mmHg 68%
    18:00 +18°C° 0 mm 1 mps 748 mmHg 72%
    19:00 +16°C° 0 mm 2 mps 748 mmHg 76%
    20:00 +16°C° 0 mm 2 mps 748 mmHg 81%
    21:00 +15°C° 0 mm 2 mps 748 mmHg 85%
    22:00 +15°C° 0 mm 2 mps 748 mmHg 89%
    23:00 +14°C° 0 mm 2 mps 748 mmHg 91%

    23 October, Wednesday

    Time Temperature Precipitation Wind Pressure Humidity
    00:00 +13°C° 0 mm 3 mps 749 mmHg 92%
    01:00 +12°C° 0 mm 3 mps 749 mmHg 94%
    02:00 +12°C° 0 mm 3 mps 749 mmHg 93%
    03:00 +11°C° 0 mm 3 mps 749 mmHg 93%
    04:00 +11°C° 0 mm 3 mps 749 mmHg 92%
    05:00 +12°C° 0 mm 2 mps 749 mmHg 93%
    06:00 +10°C° 0 mm 2 mps 749 mmHg 93%
    07:00 +11°C° 0 mm 1 mps 749 mmHg 93%
    08:00 +12°C° 0 mm 1 mps 749 mmHg 86%
    09:00 +14°C° 0 mm 1 mps 749 mmHg 79%
    10:00 +15°C° 0 mm 2 mps 749 mmHg 72%
    11:00 +15°C° 0 mm 1 mps 749 mmHg 68%
    12:00 +16°C° 0 mm 1 mps 749 mmHg 65%
    13:00 +16°C° 0 mm 1 mps 749 mmHg 61%
    14:00 +16°C° 0 mm 1 mps 748 mmHg 63%
    15:00 +15°C° 0 mm 2 mps 748 mmHg 66%
    16:00 +15°C° 0 mm 2 mps 748 mmHg 68%
    17:00 +14°C° 0 mm 2 mps 747 mmHg 71%
    18:00 +13°C° 0 mm 2 mps 747 mmHg 74%
    19:00 +11°C° 0 mm 3 mps 747 mmHg 77%
    20:00 +11°C° 0 mm 3 mps 747 mmHg 79%
    21:00 +11°C° 0 mm 3 mps 747 mmHg 81%
    22:00 +10°C° 0 mm 3 mps 747 mmHg 83%
    23:00 +10°C° 0 mm 3 mps 746 mmHg 85%

    24 October, Thursday

    Time Temperature Precipitation Wind Pressure Humidity
    00:00 +10°C° 0 mm 3 mps 746 mmHg 87%
    01:00 +10°C° 0 mm 3 mps 746 mmHg 88%
    02:00 +10°C° 0 mm 4 mps 745 mmHg 90%
    03:00 +10°C° 0 mm 4 mps 745 mmHg 92%
    04:00 +10°C° 0 mm 4 mps 745 mmHg 93%
    05:00 +10°C° 0 mm 4 mps 744 mmHg 94%
    06:00 +10°C° 0 mm 4 mps 744 mmHg 95%
    07:00 +9°C° 0 mm 5 mps 744 mmHg 95%
    08:00 +12°C° 0 mm 5 mps 744 mmHg 88%
    09:00 +14°C° 0 mm 5 mps 743 mmHg 80%
    10:00 +16°C° 0 mm 5 mps 743 mmHg 73%
    11:00 +17°C° 0 mm 5 mps 743 mmHg 67%
    12:00 +19°C° 0 mm 5 mps 743 mmHg 62%
    13:00 +20°C° 0 mm 5 mps 743 mmHg 57%
    14:00 +19°C° 0 mm 5 mps 742 mmHg 59%
    15:00 +19°C° 0 mm 4 mps 742 mmHg 62%
    16:00 +18°C° 0 mm 3 mps 741 mmHg 64%
    17:00 +17°C° 0 mm 3 mps 741 mmHg 67%
    18:00 +16°C° 0 mm 3 mps 742 mmHg 71%
    19:00 +14°C° 0 mm 3 mps 742 mmHg 74%
    20:00 +14°C° 0 mm 3 mps 742 mmHg 75%
    21:00 +13°C° 0 mm 3 mps 742 mmHg 75%
    22:00 +14°C° 0 mm 2 mps 742 mmHg 76%
    23:00 +14°C° 0 mm 2 mps 742 mmHg 75%

    25 October, Friday

    Time Temperature Precipitation Wind Pressure Humidity
    00:00 +13°C° 0 mm 2 mps 742 mmHg 75%
    01:00 +13°C° 0 mm 2 mps 743 mmHg 74%
    02:00 +13°C° 0 mm 2 mps 743 mmHg 74%
    03:00 +13°C° 0 mm 2 mps 743 mmHg 74%
    04:00 +13°C° 0 mm 2 mps 743 mmHg 75%
    05:00 +12°C° 0 mm 2 mps 743 mmHg 76%
    06:00 +12°C° 0 mm 2 mps 743 mmHg 76%
    07:00 +11°C° 0 mm 3 mps 744 mmHg 77%
    08:00 +13°C° 0 mm 3 mps 744 mmHg 73%
    09:00 +14°C° 0 mm 3 mps 745 mmHg 68%
    10:00 +17°C° 0 mm 3 mps 745 mmHg 63%
    11:00 +18°C° 0 mm 3 mps 745 mmHg 62%
    12:00 +18°C° 0 mm 3 mps 745 mmHg 62%
    13:00 +19°C° 0 mm 3 mps 746 mmHg 61%
    14:00 +18°C° 0 mm 3 mps 746 mmHg 66%
    15:00 +17°C° 0 mm 2 mps 746 mmHg 71%
    16:00 +17°C° 0 mm 2 mps 746 mmHg 75%
    17:00 +16°C° 0 mm 2 mps 746 mmHg 80%
    18:00 +15°C° 0 mm 2 mps 747 mmHg 84%
    19:00 +14°C° 0 mm 2 mps 747 mmHg 88%
    20:00 +14°C° 0 mm 2 mps 747 mmHg 90%
    21:00 +13°C° 0 mm 1 mps 747 mmHg 91%
    22:00 +13°C° 0 mm 1 mps 747 mmHg 92%
    23:00 +12°C° 0 mm 1 mps 747 mmHg 93%
    Show more